PROFILE

 METAR AND TAF INFORMATION
ADDS - METARS form results

(1205 UTC 16 October 2019)
http://aviationweather.gov/metar/data/
 
LIPZ 161150Z 19003KT 140V230 9999 FEW015 19/15 Q1016 NOSIG
LIPZ 161120Z 20007KT 9999 FEW015 18/15 Q1016 NOSIG
TAF LIPZ 161100Z 1612/1718 VRB05KT 9999 FEW050 BECMG 1618/1620 3000 BR BECMG 1700/1703 0600 FG BECMG 1706/1708 7000 

 AIRPORT MAP

 RUNWAY INFORMATION
Runway 04L Runway length 9121 ft Runway width 148 ft
Runway elevation 7 ft Runway displaced threshold 308 ft Runway heading 42
Runway 22R Runway length 9121 ft Runway width 148 ft
Runway elevation 7 ft Runway displaced threshold 0 ft Runway heading 222
Runway 04R Runway length 10827 ft Runway width 148 ft
Runway elevation 7 ft Runway displaced threshold 0 ft Runway heading 42
Runway 22L Runway length 10827 ft Runway width 148 ft
Runway elevation 7 ft Runway displaced threshold 0 ft Runway heading 222

 AIRPORT FREQUENCIES
Type APP Name APP Frequency 118.9 MHZ
Type ATIS Name ATIS Frequency 122.225 MHZ
Type GND Name GND Frequency 121.7 MHZ
Type TWR Name TWR Frequency 120.2 MHZ

 AIRPORT NEAR NAVIGATION AIDS
Type VOR-DME Name Tessera Frequency 115300 KHZ
Type NDB Name Venezia Frequency 379 KHZ